| time (UTC) | temp C | wind direction | speed KPH | gust KPH | rain 1hr cm | rain 24hr cm | rain mn cm | humidity % | barometer mb |
| 20260504001820 | 13 | 230 | 8.0 | 24.1 | 0.00 | 0.00 | 0.00 | 51 | 1010.4 |
| 20260504001321 | 13 | 253 | 6.4 | 22.5 | 0.00 | 0.00 | 0.00 | 51 | 1010.4 |
| 20260504000858 | 13 | 239 | 9.7 | 22.5 | 0.00 | 0.00 | 0.00 | 50 | 1010.4 |
| 20260504000320 | 13 | 224 | 8.0 | 17.7 | 0.00 | 0.00 | 0.00 | 50 | 1010.4 |
| 20260503235815 | 13 | 238 | 8.0 | 16.1 | 0.00 | 0.00 | 0.00 | 50 | 1010.4 |
| 20260503235339 | 13 | 234 | 8.0 | 14.5 | 0.00 | 0.00 | 0.00 | 49 | 1010.4 |
| 20260503234832 | 13 | 171 | 6.4 | 27.4 | 0.00 | 0.00 | 0.00 | 49 | 1010.4 |
| 20260503234359 | 13 | 225 | 9.7 | 17.7 | 0.00 | 0.00 | 0.00 | 49 | 1010.5 |
| 20260503233852 | 13 | 225 | 9.7 | 22.5 | 0.00 | 0.00 | 0.00 | 48 | 1010.5 |
| 20260503233335 | 13 | 238 | 11.3 | 22.5 | 0.00 | 0.00 | 0.00 | 49 | 1010.7 |
| 20260503232829 | 13 | 266 | 11.3 | 25.7 | 0.00 | 0.00 | 0.00 | 50 | 1010.6 |
| 20260503232313 | 13 | 243 | 12.9 | 24.1 | 0.00 | 0.00 | 0.00 | 49 | 1010.6 |
| 20260503231858 | 13 | 232 | 11.3 | 25.7 | 0.00 | 0.00 | 0.00 | 49 | 1010.7 |
| 20260503231319 | 13 | 242 | 11.3 | 25.7 | 0.00 | 0.00 | 0.00 | 49 | 1010.7 |
| 20260503230853 | 13 | 222 | 12.9 | 25.7 | 0.00 | 0.00 | 0.00 | 49 | 1010.7 |
| 20260503230315 | 13 | 244 | 11.3 | 22.5 | 0.00 | 0.00 | 0.00 | 48 | 1010.7 |
| 20260503225835 | 13 | 221 | 9.7 | 17.7 | 0.00 | 0.00 | 0.00 | 49 | 1010.7 |
| 20260503225401 | 13 | 240 | 8.0 | 29.0 | 0.00 | 0.00 | 0.00 | 48 | 1010.7 |
| 20260503224831 | 13 | 265 | 14.5 | 29.0 | 0.00 | 0.00 | 0.00 | 47 | 1010.7 |
| 20260503224334 | 13 | 251 | 14.5 | 25.7 | 0.00 | 0.00 | 0.00 | 47 | 1010.7 |
| 20260503223847 | 13 | 252 | 9.7 | 22.5 | 0.00 | 0.00 | 0.00 | 48 | 1010.8 |
| 20260503223329 | 13 | 240 | 9.7 | 27.4 | 0.00 | 0.00 | 0.00 | 48 | 1010.7 |
| 20260503222837 | 13 | 217 | 9.7 | 27.4 | 0.00 | 0.00 | 0.00 | 48 | 1010.7 |
| 20260503222339 | 13 | 223 | 12.9 | 22.5 | 0.00 | 0.00 | 0.00 | 48 | 1010.7 |
| 20260503221837 | 13 | 238 | 9.7 | 37.0 | 0.00 | 0.00 | 0.00 | 48 | 1010.7 |
| 20260503221319 | 13 | 247 | 19.3 | 37.0 | 0.00 | 0.00 | 0.00 | 47 | 1010.8 |
| 20260503220813 | 13 | 240 | 12.9 | 37.0 | 0.00 | 0.00 | 0.00 | 47 | 1010.8 |
| 20260503220338 | 13 | 238 | 16.1 | 37.0 | 0.00 | 0.00 | 0.00 | 47 | 1010.7 |
| 20260503215831 | 13 | 255 | 14.5 | 32.2 | 0.00 | 0.00 | 0.00 | 48 | 1010.8 |
| 20260503215313 | 13 | 273 | 14.5 | 37.0 | 0.00 | 0.00 | 0.00 | 49 | 1010.7 |
| 20260503214833 | 13 | 273 | 19.3 | 40.2 | 0.00 | 0.00 | 0.00 | 48 | 1010.7 |
| 20260503214317 | 13 | 260 | 16.1 | 40.2 | 0.00 | 0.00 | 0.00 | 46 | 1010.7 |
| 20260503213831 | 13 | 241 | 17.7 | 33.8 | 0.00 | 0.00 | 0.00 | 46 | 1010.7 |
| 20260503213336 | 13 | 236 | 17.7 | 46.7 | 0.00 | 0.00 | 0.00 | 44 | 1010.7 |
| 20260503212830 | 13 | 252 | 19.3 | 46.7 | 0.00 | 0.00 | 0.00 | 43 | 1010.7 |
| 20260503212315 | 13 | 269 | 16.1 | 37.0 | 0.00 | 0.00 | 0.00 | 43 | 1010.7 |
| 20260503211814 | 13 | 272 | 22.5 | 43.5 | 0.00 | 0.00 | 0.00 | 43 | 1010.7 |
| 20260503211317 | 13 | 247 | 22.5 | 43.5 | 0.00 | 0.00 | 0.00 | 43 | 1010.7 |
| 20260503210814 | 13 | 259 | 19.3 | 41.8 | 0.00 | 0.00 | 0.00 | 44 | 1010.8 |
| 20260503210337 | 13 | 266 | 17.7 | 40.2 | 0.00 | 0.00 | 0.00 | 42 | 1010.8 |
| 20260503205828 | 13 | 266 | 20.9 | 40.2 | 0.00 | 0.00 | 0.00 | 41 | 1010.8 |
| 20260503205331 | 13 | 279 | 19.3 | 41.8 | 0.00 | 0.00 | 0.00 | 41 | 1010.8 |
| 20260503204825 | 13 | 277 | 20.9 | 48.3 | 0.00 | 0.00 | 0.00 | 41 | 1010.9 |
| 20260503204324 | 13 | 240 | 19.3 | 38.6 | 0.00 | 0.00 | 0.00 | 42 | 1010.8 |
| 20260503203844 | 13 | 271 | 20.9 | 43.5 | 0.00 | 0.00 | 0.00 | 41 | 1011.0 |
| 20260503203327 | 14 | 244 | 22.5 | 45.1 | 0.00 | 0.00 | 0.00 | 41 | 1010.9 |
| 20260503202818 | 14 | 234 | 14.5 | 45.1 | 0.00 | 0.00 | 0.00 | 43 | 1010.8 |
| 20260503202338 | 14 | 235 | 22.5 | 41.8 | 0.00 | 0.00 | 0.00 | 41 | 1011.0 |
| 20260503201849 | 14 | 287 | 17.7 | 35.4 | 0.00 | 0.00 | 0.00 | 45 | 1010.9 |
| 20260503201352 | 14 | 260 | 20.9 | 35.4 | 0.00 | 0.00 | 0.00 | 45 | 1010.9 |
| 20260503200819 | 14 | 252 | 16.1 | 48.3 | 0.00 | 0.00 | 0.00 | 45 | 1011.1 |
| 20260503200322 | 13 | 257 | 20.9 | 48.3 | 0.00 | 0.00 | 0.00 | 45 | 1011.1 |
| 20260503195815 | 13 | 245 | 24.1 | 48.3 | 0.00 | 0.00 | 0.00 | 44 | 1011.2 |
| 20260503195337 | 13 | 252 | 22.5 | 41.8 | 0.00 | 0.00 | 0.00 | 46 | 1011.2 |
| 20260503194855 | 13 | 255 | 24.1 | 41.8 | 0.00 | 0.00 | 0.00 | 44 | 1011.3 |
| 20260503194336 | 13 | 250 | 22.5 | 41.8 | 0.00 | 0.00 | 0.00 | 46 | 1011.3 |
| 20260503193832 | 13 | 273 | 24.1 | 46.7 | 0.00 | 0.00 | 0.00 | 45 | 1011.5 |
| 20260503193335 | 13 | 267 | 20.9 | 46.7 | 0.00 | 0.00 | 0.00 | 45 | 1011.5 |
| 20260503192828 | 13 | 217 | 20.9 | 45.1 | 0.00 | 0.00 | 0.00 | 46 | 1011.6 |
| 20260503192332 | 13 | 247 | 19.3 | 45.1 | 0.00 | 0.00 | 0.00 | 47 | 1011.6 |
| 20260503191819 | 13 | 257 | 20.9 | 41.8 | 0.00 | 0.00 | 0.00 | 47 | 1011.7 |
| 20260503191322 | 13 | 240 | 22.5 | 56.3 | 0.00 | 0.00 | 0.00 | 46 | 1011.7 |
| 20260503190822 | 13 | 279 | 24.1 | 56.3 | 0.00 | 0.00 | 0.00 | 46 | 1011.8 |
| 20260503190325 | 13 | 271 | 19.3 | 37.0 | 0.00 | 0.00 | 0.00 | 49 | 1011.9 |
| 20260503185816 | 13 | 238 | 24.1 | 37.0 | 0.00 | 0.00 | 0.00 | 45 | 1012.0 |
| 20260503185339 | 13 | 248 | 20.9 | 38.6 | 0.00 | 0.00 | 0.00 | 46 | 1012.0 |
| 20260503184852 | 13 | 274 | 22.5 | 38.6 | 0.00 | 0.00 | 0.00 | 46 | 1012.1 |
| 20260503184336 | 13 | 257 | 22.5 | 43.5 | 0.00 | 0.00 | 0.00 | 46 | 1012.1 |
| 20260503183849 | 13 | 265 | 22.5 | 43.5 | 0.00 | 0.00 | 0.00 | 47 | 1012.2 |
| 20260503183331 | 13 | 275 | 22.5 | 40.2 | 0.00 | 0.00 | 0.00 | 48 | 1012.2 |
| 20260503182820 | 13 | 236 | 22.5 | 40.2 | 0.00 | 0.00 | 0.00 | 48 | 1012.2 |
| 20260503182324 | 13 | 258 | 19.3 | 35.4 | 0.00 | 0.00 | 0.00 | 48 | 1012.3 |
| 20260503181823 | 13 | 268 | 19.3 | 33.8 | 0.00 | 0.00 | 0.00 | 49 | 1012.3 |
| 20260503181326 | 13 | 245 | 16.1 | 30.6 | 0.00 | 0.00 | 0.00 | 53 | 1012.3 |
| 20260503180816 | 12 | 267 | 16.1 | 32.2 | 0.00 | 0.00 | 0.00 | 55 | 1012.4 |
| 20260503180338 | 12 | 252 | 16.1 | 32.2 | 0.00 | 0.00 | 0.00 | 54 | 1012.4 |
| 20260503175831 | 12 | 248 | 16.1 | 29.0 | 0.00 | 0.00 | 0.00 | 52 | 1012.6 |
| 20260503175315 | 12 | 278 | 17.7 | 33.8 | 0.00 | 0.00 | 0.00 | 52 | 1012.6 |
| 20260503174834 | 12 | 240 | 19.3 | 32.2 | 0.00 | 0.00 | 0.00 | 52 | 1012.6 |
| 20260503174316 | 12 | 250 | 14.5 | 35.4 | 0.00 | 0.00 | 0.00 | 52 | 1012.6 |
| 20260503173836 | 12 | 279 | 19.3 | 38.6 | 0.00 | 0.00 | 0.00 | 50 | 1012.7 |
| 20260503173320 | 12 | 267 | 22.5 | 38.6 | 0.00 | 0.00 | 0.00 | 48 | 1012.6 |
| 20260503172818 | 12 | 265 | 19.3 | 38.6 | 0.00 | 0.00 | 0.00 | 45 | 1012.6 |
| 20260503172338 | 12 | 232 | 16.1 | 32.2 | 0.00 | 0.00 | 0.00 | 46 | 1012.7 |
| 20260503171830 | 13 | 262 | 20.9 | 38.6 | 0.00 | 0.00 | 0.00 | 42 | 1012.7 |
| 20260503171332 | 13 | 257 | 19.3 | 38.6 | 0.00 | 0.00 | 0.00 | 41 | 1012.8 |
| 20260503170825 | 13 | 281 | 17.7 | 30.6 | 0.00 | 0.00 | 0.00 | 40 | 1012.7 |
| 20260503170328 | 14 | 209 | 17.7 | 30.6 | 0.00 | 0.00 | 0.00 | 41 | 1012.8 |
| 20260503150816 | 10 | 259 | 17.7 | 29.0 | 0.00 | 0.00 | 0.00 | 43 | 1014.4 |
| 20260503150319 | 10 | 296 | 12.9 | 24.1 | 0.00 | 0.00 | 0.00 | 50 | 1014.4 |
| 20260503131320 | 8 | 298 | 16.1 | 27.4 | 0.00 | 0.00 | 0.00 | 65 | 1014.9 |
| 20260503130839 | 8 | 226 | 14.5 | 32.2 | 0.00 | 0.00 | 0.00 | 66 | 1014.9 |
| 20260503130316 | 8 | 232 | 16.1 | 29.0 | 0.00 | 0.00 | 0.00 | 66 | 1014.9 |
| 20260503110826 | 4 | 231 | 4.8 | 16.1 | 0.00 | 0.00 | 0.00 | 79 | 1014.5 |
| 20260503110331 | 3 | 216 | 3.2 | 12.9 | 0.00 | 0.00 | 0.00 | 79 | 1014.5 |
| 20260503090320 | 3 | 200 | 1.6 | 9.7 | 0.00 | 0.00 | 0.00 | 77 | 1014.5 |
| 20260503081320 | 2 | 184 | 1.6 | 6.4 | 0.00 | 0.00 | 0.00 | 79 | 1014.7 |
| 20260503080815 | 3 | 188 | 1.6 | 4.8 | 0.00 | 0.00 | 0.00 | 79 | 1014.7 |
| 20260503080319 | 2 | 188 | 1.6 | 6.4 | 0.00 | 0.00 | 0.00 | 79 | 1014.8 |
| 20260503072832 | 3 | 191 | 1.6 | 6.4 | 0.00 | 0.00 | 0.00 | 78 | 1014.7 |
| 20260503072316 | 2 | 208 | 3.2 | 6.4 | 0.00 | 0.00 | 0.00 | 78 | 1014.7 |
| 20260503071835 | 2 | 206 | 3.2 | 6.4 | 0.00 | 0.00 | 0.00 | 78 | 1014.8 |
| 20260503071338 | 2 | 203 | 1.6 | 8.0 | 0.00 | 0.00 | 0.00 | 78 | 1014.8 |
| 20260503070831 | 2 | 204 | 1.6 | 8.0 | 0.00 | 0.00 | 0.00 | 78 | 1014.8 |
| 20260503070335 | 2 | 180 | 3.2 | 8.0 | 0.00 | 0.00 | 0.00 | 78 | 1014.7 |
| 20260503060334 | 3 | 190 | 1.6 | 4.8 | 0.00 | 0.00 | 0.00 | 78 | 1015.1 |
| 20260503054840 | 3 | 191 | 3.2 | 8.0 | 0.00 | 0.00 | 0.00 | 77 | 1015.2 |
| 20260503054320 | 3 | 180 | 3.2 | 9.7 | 0.00 | 0.00 | 0.00 | 77 | 1015.2 |
| 20260503053818 | 3 | 198 | 3.2 | 9.7 | 0.00 | 0.00 | 0.00 | 78 | 1015.2 |
| 20260503053339 | 3 | 195 | 1.6 | 8.0 | 0.00 | 0.00 | 0.00 | 78 | 1015.2 |
| 20260503052831 | 3 | 191 | 3.2 | 6.4 | 0.00 | 0.00 | 0.00 | 77 | 1015.2 |
| 20260503052314 | 3 | 190 | 0.0 | 6.4 | 0.00 | 0.00 | 0.00 | 77 | 1015.3 |
| 20260503051855 | 3 | 193 | 3.2 | 6.4 | 0.00 | 0.00 | 0.00 | 76 | 1015.3 |
| 20260503051316 | 3 | 232 | 0.0 | 3.2 | 0.00 | 0.00 | 0.00 | 75 | 1015.3 |
| 20260503050814 | 4 | 232 | 0.0 | 4.8 | 0.00 | 0.00 | 0.00 | 74 | 1015.3 |
| 20260503050318 | 5 | 232 | 0.0 | 6.4 | 0.00 | 0.00 | 0.00 | 74 | 1015.3 |
| 20260503045831 | 5 | 242 | 0.0 | 14.5 | 0.00 | 0.00 | 0.00 | 74 | 1015.3 |
| 20260503045314 | 5 | 249 | 4.8 | 14.5 | 0.00 | 0.00 | 0.00 | 74 | 1015.4 |
| 20260503044815 | 5 | 232 | 6.4 | 17.7 | 0.00 | 0.00 | 0.00 | 74 | 1015.3 |
| 20260503044339 | 5 | 257 | 8.0 | 22.5 | 0.00 | 0.00 | 0.00 | 73 | 1015.4 |
| 20260503043830 | 5 | 246 | 11.3 | 22.5 | 0.00 | 0.00 | 0.00 | 73 | 1015.4 |
| 20260503043334 | 5 | 259 | 8.0 | 24.1 | 0.00 | 0.00 | 0.00 | 74 | 1015.4 |
| 20260503042827 | 5 | 252 | 11.3 | 24.1 | 0.00 | 0.00 | 0.00 | 74 | 1015.4 |
| 20260503042324 | 5 | 235 | 6.4 | 24.1 | 0.00 | 0.00 | 0.00 | 74 | 1015.5 |
| 20260503041823 | 5 | 234 | 12.9 | 24.1 | 0.00 | 0.00 | 0.00 | 74 | 1015.5 |
| 20260503041326 | 5 | 271 | 9.7 | 19.3 | 0.00 | 0.00 | 0.00 | 75 | 1015.5 |
| 20260503040825 | 5 | 238 | 8.0 | 19.3 | 0.00 | 0.00 | 0.00 | 74 | 1015.5 |
| 20260503040329 | 5 | 254 | 9.7 | 19.3 | 0.00 | 0.00 | 0.00 | 74 | 1015.5 |
| 20260503035833 | 5 | 244 | 6.4 | 19.3 | 0.00 | 0.00 | 0.00 | 74 | 1015.5 |
| 20260503035317 | 5 | 248 | 9.7 | 24.1 | 0.00 | 0.00 | 0.00 | 75 | 1015.5 |
| 20260503034815 | 5 | 238 | 12.9 | 24.1 | 0.00 | 0.00 | 0.00 | 75 | 1015.6 |
| 20260503034318 | 5 | 239 | 8.0 | 16.1 | 0.00 | 0.00 | 0.00 | 75 | 1015.6 |
| 20260503033839 | 5 | 255 | 6.4 | 14.5 | 0.00 | 0.00 | 0.00 | 75 | 1015.6 |
| 20260503033321 | 5 | 263 | 8.0 | 24.1 | 0.00 | 0.00 | 0.00 | 74 | 1015.6 |
| 20260503032819 | 5 | 237 | 9.7 | 24.1 | 0.00 | 0.00 | 0.00 | 74 | 1015.6 |
| 20260503032321 | 5 | 248 | 6.4 | 17.7 | 0.00 | 0.00 | 0.00 | 75 | 1015.7 |
| 20260503031816 | 5 | 244 | 6.4 | 16.1 | 0.00 | 0.00 | 0.00 | 74 | 1015.7 |
| 20260503031340 | 5 | 281 | 8.0 | 17.7 | 0.00 | 0.00 | 0.00 | 74 | 1015.7 |
| 20260503030831 | 5 | 237 | 6.4 | 16.1 | 0.00 | 0.00 | 0.00 | 74 | 1015.7 |
| 20260503030336 | 5 | 248 | 6.4 | 16.1 | 0.00 | 0.00 | 0.00 | 74 | 1015.8 |
| 20260503025830 | 5 | 254 | 4.8 | 16.1 | 0.00 | 0.00 | 0.00 | 73 | 1015.8 |
| 20260503025315 | 5 | 225 | 9.7 | 16.1 | 0.00 | 0.00 | 0.00 | 73 | 1015.8 |
| 20260503024815 | 5 | 218 | 6.4 | 19.3 | 0.00 | 0.00 | 0.00 | 73 | 1015.8 |
| 20260503024319 | 5 | 270 | 9.7 | 19.3 | 0.00 | 0.00 | 0.00 | 73 | 1015.9 |
| 20260503023838 | 5 | 236 | 6.4 | 16.1 | 0.00 | 0.00 | 0.00 | 74 | 1015.8 |
| 20260503023322 | 5 | 246 | 6.4 | 16.1 | 0.00 | 0.00 | 0.00 | 73 | 1015.9 |
| 20260503022834 | 5 | 216 | 4.8 | 14.5 | 0.00 | 0.00 | 0.00 | 73 | 1016.0 |
| 20260503022359 | 5 | 262 | 4.8 | 14.5 | 0.00 | 0.00 | 0.00 | 74 | 1016.0 |
| 20260503021856 | 5 | 240 | 6.4 | 14.5 | 0.00 | 0.00 | 0.00 | 73 | 1016.0 |
| 20260503021316 | 5 | 236 | 4.8 | 8.0 | 0.00 | 0.00 | 0.00 | 74 | 1016.1 |
| 20260503020816 | 5 | 242 | 3.2 | 11.3 | 0.00 | 0.00 | 0.00 | 74 | 1016.1 |
| 20260503020339 | 5 | 243 | 3.2 | 11.3 | 0.00 | 0.00 | 0.00 | 73 | 1016.0 |
| 20260503015852 | 5 | 210 | 1.6 | 17.7 | 0.00 | 0.00 | 0.00 | 73 | 1016.0 |
| 20260503015335 | 5 | 270 | 6.4 | 17.7 | 0.00 | 0.00 | 0.00 | 73 | 1015.9 |
| 20260503014825 | 5 | 248 | 3.2 | 14.5 | 0.00 | 0.00 | 0.00 | 73 | 1015.9 |
| 20260503014325 | 5 | 234 | 4.8 | 8.0 | 0.00 | 0.00 | 0.00 | 73 | 1015.9 |
| 20260503013819 | 5 | 228 | 3.2 | 8.0 | 0.00 | 0.00 | 0.00 | 73 | 1016.0 |
| 20260503013341 | 5 | 266 | 4.8 | 12.9 | 0.00 | 0.00 | 0.00 | 73 | 1016.0 |
| 20260503012817 | 5 | 246 | 4.8 | 12.9 | 0.00 | 0.00 | 0.00 | 72 | 1016.0 |
| 20260503012318 | 5 | 246 | 6.4 | 14.5 | 0.00 | 0.00 | 0.00 | 72 | 1016.0 |
| 20260503011836 | 5 | 262 | 8.0 | 14.5 | 0.00 | 0.00 | 0.00 | 72 | 1016.0 |
| 20260503011321 | 5 | 275 | 4.8 | 14.5 | 0.00 | 0.00 | 0.00 | 72 | 1016.0 |
| 20260503010832 | 5 | 241 | 4.8 | 16.1 | 0.00 | 0.00 | 0.00 | 72 | 1016.0 |
| 20260503010315 | 5 | 246 | 6.4 | 16.1 | 0.00 | 0.00 | 0.00 | 71 | 1015.9 |
| 20260503005833 | 5 | 259 | 8.0 | 16.1 | 0.00 | 0.00 | 0.00 | 71 | 1015.9 |
| 20260503005339 | 5 | 245 | 6.4 | 14.5 | 0.00 | 0.00 | 0.00 | 70 | 1015.9 |
| 20260503004853 | 5 | 257 | 6.4 | 14.5 | 0.00 | 0.00 | 0.00 | 69 | 1015.9 |
| 20260503004316 | 5 | 244 | 8.0 | 16.1 | 0.00 | 0.00 | 0.00 | 69 | 1015.9 |
| 20260503003833 | 5 | 239 | 8.0 | 16.1 | 0.00 | 0.00 | 0.00 | 69 | 1015.8 |
| 20260503003317 | 5 | 247 | 8.0 | 14.5 | 0.00 | 0.00 | 0.00 | 69 | 1015.8 |
| 20260503002815 | 5 | 243 | 4.8 | 14.5 | 0.00 | 0.00 | 0.00 | 69 | 1015.8 |
| 20260503002338 | 5 | 244 | 8.0 | 16.1 | 0.00 | 0.00 | 0.00 | 69 | 1015.8 |